Regional Weather Roundup
Issued by NWS

Home | Current Version | Previous Version | Text Only | Print | Product List | Glossary On
Versions: 1 2 3 4 5 6 7 8 9 10 11 12 13 14 15 16 17 18 19 20 21 22 23 24 25 26 27 28 29 30 31 32 33 34 35 36 37 38 39 40 41 42 43 44 45 46 47 48 49 50
000
ASUS43 KBIS 191010
RWRND

NORTH DAKOTA REGIONAL WEATHER ROUNDUP
NATIONAL WEATHER SERVICE BISMARCK ND
500 AM CDT SAT AUG 19 2017

NOTE: "FAIR" INDICATES FEW OR NO CLOUDS BELOW 12,000 FEET WITH NO
SIGNIFICANT WEATHER AND/OR OBSTRUCTIONS TO VISIBILITY.


NDZ001>003-009>011-017-191100-
NORTHWEST NORTH DAKOTA

CITY           SKY/WX    TMP DP  RH WIND       PRES   REMARKS
WILLISTON      CLEAR     64  53  67 S5        29.77F
MINOT          CLEAR     69  54  58 S14G25    29.80F
MINOT AFB      CLEAR     66  53  63 S14       29.77F
$$

NDZ018>021-031>035-040>046-191100-
SOUTHWEST NORTH DAKOTA

CITY           SKY/WX    TMP DP  RH WIND       PRES   REMARKS
BISMARCK       CLEAR     59  55  87 NE5       29.87F
DICKINSON      CLEAR     59  52  77 SE10      29.82F
GARRISON         N/A     59  56  89 CALM      29.84F
HETTINGER ARPT CLEAR     60  50  69 SE9       29.87F
$$

NDZ004>008-012>016-024-026-027-054-191100-
NORTHEAST NORTH DAKOTA

CITY           SKY/WX    TMP DP  RH WIND       PRES   REMARKS
GRAND FORKS    CLEAR     56  54  93 SW7       29.83S
GRND FRKS AFB  CLEAR     57  54  89 W6        29.83F
DEVILS LAKE    CLEAR     65  55  70 SW8       29.85F
$$

NDZ022-023-025-028>030-036>039-047>053-191100-
SOUTHEAST NORTH DAKOTA

CITY           SKY/WX    TMP DP  RH WIND       PRES   REMARKS
FARGO          CLEAR     59  57  93 S8        29.87S
JAMESTOWN      CLEAR     56  53  90 SW5       29.87F
$$





USA.gov is the U.S. government's official web portal to all federal, state and local government web resources and services.